Location: ????? ????
(37.9717°N, 23.4051°E)
Time: 04:29:06
(UTC+00:00)

CZ-4C R/B - Pass Details

Date: 18 April 2024
Orbit: 530 x 1463 km, 63.4° (Epoch: 20 May)

Event Time Altitude Azimuth Distance (km) Brightness Sun altitude
Rises 20:33:15 0° 327° (NNW) 3,903 6.7 -34.2°
Reaches altitude 10° 20:35:43 10° 328° (NNW) 3,063 5.9 -34.5°
Enters shadow 20:42:54 82° 340° (NNW) 1,335 3.0 -35.2°
